Content
SEND FEEDBACK

Daily
Averages
Monthly
Summary
United States of America

ELIZABETH, NEW JERSEY


Home > North America > United States > New Jersey
Elevation: 1 foot     Latitude: 40 42N     Longitude: 074 10W

WEATHER
 
SELECT A DAY
Number of Records: 191,776;   Date Range: 1/1/95 - 9/29/14
 
SHARE

PRINT THIS DATA

[ ← Previous Day ]
WEATHER ALMANAC - APRIL 24, 2013
[ Next Day → ]
[ °C ]   °F
Weather ElementAverageHighLow
Temperature56.7 °F70 °F (2:51 pm)42.1 °F (4:51 am)
Dewpoint45 °F51.1 °F (6:51 pm)37 °F (4:51 am)
Humidity66.1 %85 % (6:51 am)47 % (2:51 pm)
Barometer29.96 in30.09 in (1:51 am)29.82 in (6:51 pm)
Wind Speed8.8 mph15 mph (1:51 pm)
Wind Gust18.4 mph (12:51 pm)
Weather ElementAverage
Visibility10 mi
Wind DirectionS (184.8 °)

Weather ElementTotal
Precipitation---
Heating Degree Days9 (Base 65)
Growing Degree Days6.1 (Base 50)
Averaged from 23 records on April 24, 2013
WEATHER CONDITIONS BREAKOUT
WIND DIRECTION BREAKOUT
WEATHER BY HOUR - APRIL 24, 2013
[ °C ]   °F
Local TimeTemperatureDewpointHumidityBarometerVisibilityWind DirectionWind SpeedGust SpeedPrecipitationEventsConditions
1:51 AM46.0 °F37.9 °F73 %30.09 in10.0 miWNW (300°)6.9 mphClear
2:51 AM45.0 °F37.9 °F76 %30.07 in10.0 miNW (320°)4.6 mphClear
3:51 AM44.1 °F37.9 °F79 %30.06 in10.0 miWNW (300°)4.6 mphClear
4:51 AM42.1 °F37.0 °F82 %30.06 in10.0 miWNW (290°)5.8 mphClear
5:51 AM44.1 °F37.9 °F79 %30.06 in10.0 miCalmPartly Cloudy
6:51 AM42.1 °F37.9 °F85 %30.07 in10.0 miCalmPartly Cloudy
7:51 AM48.0 °F39.0 °F71 %30.07 in10.0 miWest (280°)4.6 mphScattered Clouds
8:51 AM52.0 °F39.9 °F63 %30.06 in10.0 miSW (230°)4.6 mphPartly Cloudy
9:51 AM57.0 °F43.0 °F59 %30.04 in10.0 miSW (230°)8.1 mphPartly Cloudy
10:51 AM61.0 °F44.1 °F54 %30.02 in10.0 miSW (220°)13.8 mphScattered Clouds
11:51 AM64.0 °F46.0 °F52 %29.99 in10.0 miSW (220°)11.5 mphPartly Cloudy
12:51 PM66.9 °F46.9 °F49 %29.96 in10.0 miSSW (210°)11.5 mph18.4 mphPartly Cloudy
1:51 PM68.0 °F48.0 °F49 %29.93 in10.0 miSouth (190°)15.0 mphPartly Cloudy
2:51 PM70.0 °F48.9 °F47 %29.89 in10.0 miSouth (170°)12.7 mphPartly Cloudy
3:51 PM66.9 °F48.9 °F52 %29.86 in10.0 miEast (100°)12.7 mph16.1 mphMostly Cloudy
4:51 PM62.1 °F48.9 °F62 %29.85 in10.0 miEast (90°)15.0 mphMostly Cloudy
5:51 PM59.0 °F48.9 °F69 %29.83 in10.0 miEast (90°)11.5 mphMostly Cloudy
6:51 PM64.0 °F51.1 °F63 %29.82 in10.0 miSSE (150°)12.7 mph18.4 mphOvercast
7:51 PM63.0 °F51.1 °F65 %29.84 in10.0 miSouth (180°)9.2 mphOvercast
8:51 PM62.1 °F51.1 °F67 %29.86 in10.0 miSouth (170°)12.7 mphOvercast
9:51 PM60.1 °F50.0 °F69 %29.87 in10.0 miSouth (170°)10.4 mphOvercast
10:51 PM57.9 °F51.1 °F78 %29.88 in10.0 miSouth (170°)6.9 mphMostly Cloudy
11:51 PM57.9 °F51.1 °F78 %29.86 in10.0 miSouth (170°)6.9 mphMostly Cloudy
Hourly data recorded from KEWR, located miles away from Elizabeth, New Jersey







STORIES FROM OUR PARTNERS